Theta_e
313 313 311 317 322 327 333 334 335 335 334 332 331 329 329 331 330 330 330 329 329 326 325 326 326 327 327 326 327 326 326 327 327 329 332 330 324 328 335 338 339 336 330 331 334 335 337 339 339 338 339 332 323 324 325 326 324 324 323 320 317 316 319 320 323 323 322 321 322 325 329 333 334 335 335 334 334 334 334 333 331 327 327 329 329 331 333 333 333 334 333 333 331 328 327 328 328
313 313 311 316 322 328 332 333 334 333 331 330 331 330 330 331 330 330 329 328 327 326 325 326 326 326 326 326 326 326 327 327 328 330 329 324 324 329 333 337 338 333 328 328 331 333 337 339 338 338 338 332 324 324 326 326 325 326 326 323 317 316 318 320 323 324 323 324 326 329 332 334 334 334 334 334 334 334 334 334 331 327 327 330 331 332 333 334 334 334 334 333 331 329 326 324 322
313 313 312 318 324 328 329 329 331 329 329 328 329 331 331 331 330 329 328 326 326 326 325 326 326 326 326 327 327 327 329 327 329 329 328 328 330 329 326 333 336 330 326 325 328 331 335 337 337 338 336 330 324 324 326 326 325 326 328 326 320 316 316 318 322 324 325 326 328 330 333 334 334 334 334 335 335 335 335 334 332 328 327 329 331 332 332 334 335 335 335 333 332 330 326 323 322
313 313 313 318 325 329 330 329 330 328 328 328 328 332 333 331 331 329 328 326 326 326 326 326 326 327 327 327 327 328 328 326 328 330 332 333 335 333 324 328 334 332 328 325 326 329 333 335 336 338 334 327 324 324 325 325 324 325 328 329 324 319 316 316 320 323 327 329 330 332 333 333 334 334 334 335 334 335 335 334 333 329 328 329 331 333 333 334 335 335 334 333 332 330 328 326 324
312 314 314 318 325 327 329 330 330 329 329 329 328 332 332 331 330 329 328 327 326 326 326 326 326 327 327 327 326 327 328 328 328 328 331 332 330 330 324 325 333 336 332 327 328 328 330 333 335 337 332 324 323 323 324 324 323 324 328 330 328 325 321 317 317 321 327 331 332 332 333 333 334 334 334 335 334 335 335 334 333 330 328 329 331 332 332 333 335 335 334 333 331 330 328 326 322
312 315 316 318 322 323 326 328 328 328 329 331 329 331 331 330 330 329 329 328 326 326 326 326 326 325 326 326 326 327 328 327 329 329 328 327 324 324 324 325 332 337 336 331 331 329 327 332 335 337 331 322 322 323 324 325 324 325 328 331 331 330 327 321 317 317 324 330 331 332 333 333 334 335 335 335 335 335 334 333 333 331 324 324 330 329 329 330 331 334 333 332 331 330 327 325 322
311 314 319 322 321 320 323 326 326 327 329 330 330 330 330 330 330 329 329 328 326 326 326 326 325 325 326 327 327 327 327 326 328 329 326 324 323 323 323 325 331 335 339 338 335 330 328 331 335 337 332 324 323 325 327 326 325 328 329 331 332 332 329 324 319 316 322 329 331 332 333 333 333 334 335 335 335 335 334 333 333 333 324 319 324 322 324 329 328 330 331 331 331 329 327 323 322
312 314 319 323 324 322 323 324 325 327 328 328 329 330 330 330 330 329 329 328 327 327 326 326 325 325 326 327 328 328 328 326 325 325 324 323 323 323 323 325 330 332 339 342 337 332 331 330 334 336 334 329 328 329 332 332 330 330 331 333 333 332 329 322 319 316 321 328 330 331 332 332 332 333 335 335 335 335 334 334 332 333 330 324 323 322 325 330 329 328 327 327 327 326 324 321 322
314 316 318 320 323 323 323 324 325 326 327 327 328 329 330 330 329 329 329 328 328 328 327 326 325 326 327 326 329 331 328 325 324 324 323 323 323 323 323 325 328 330 338 342 337 333 334 332 332 335 335 332 331 331 334 335 333 333 333 334 334 332 327 319 317 318 320 326 329 330 331 331 332 332 333 335 335 335 334 334 333 332 333 330 329 329 329 329 330 330 327 324 322 322 322 320 320
314 315 318 319 320 320 320 322 324 326 327 327 328 328 329 329 330 329 328 328 328 328 327 327 325 326 326 325 331 332 327 325 326 324 324 323 323 322 323 326 327 330 337 340 336 333 336 336 333 333 334 332 331 332 334 335 334 334 335 335 334 331 325 317 317 323 321 322 327 328 330 331 331 332 332 334 334 334 334 333 333 331 332 331 331 331 331 330 329 329 328 326 322 321 320 319 319
314 315 317 318 319 319 319 320 322 325 326 327 327 328 329 329 329 328 327 327 327 327 327 326 326 326 325 326 332 332 330 333 330 323 324 323 323 323 324 328 330 333 336 336 334 333 335 336 334 333 333 333 333 333 334 335 334 335 336 335 334 330 324 317 315 321 320 319 325 326 328 330 330 332 332 334 334 334 334 333 332 331 331 330 329 329 329 329 328 327 327 326 324 322 319 317 317
314 316 317 317 317 318 319 321 322 324 326 326 327 328 329 329 328 326 327 327 327 327 326 326 326 326 326 327 332 334 335 337 332 323 324 323 323 324 327 330 332 335 336 334 333 333 333 333 334 333 332 333 334 332 333 336 336 336 336 335 334 330 325 319 314 315 314 315 323 325 327 328 330 331 331 332 333 333 333 332 331 330 329 326 325 325 325 323 324 326 326 325 324 323 320 316 317
313 315 317 318 318 319 319 320 321 324 325 325 326 327 327 327 326 326 326 326 327 327 326 326 325 325 325 328 335 336 334 334 330 325 324 325 324 325 330 333 334 337 337 333 332 332 331 330 331 331 332 333 333 332 332 335 336 336 337 335 334 331 325 320 316 314 311 311 318 324 325 326 328 330 330 331 332 332 332 332 331 329 327 325 323 323 322 319 318 323 325 325 323 322 320 316 318
312 314 315 317 318 319 319 320 321 322 322 324 324 323 323 324 324 324 324 324 325 325 324 324 324 325 324 329 336 335 331 330 328 325 324 325 324 326 330 332 336 338 337 334 331 329 329 329 329 328 331 332 332 332 333 334 335 335 336 335 334 332 327 322 317 315 313 312 313 318 323 325 328 329 330 330 331 331 331 331 331 330 329 327 325 323 322 318 314 319 323 322 321 320 319 317 319
312 313 314 315 316 318 319 320 321 320 322 322 321 320 321 322 322 322 322 323 323 323 323 323 323 324 324 330 335 333 329 327 325 325 325 325 324 325 328 329 337 340 336 335 333 330 328 329 329 328 330 331 331 332 333 334 334 334 334 334 334 332 328 323 319 316 314 314 313 314 318 322 326 330 329 329 329 330 330 329 329 329 329 328 326 324 321 315 315 320 321 321 320 318 319 319 319
311 312 315 316 316 317 318 318 319 320 321 320 319 319 320 320 321 321 322 322 322 322 322 323 324 323 327 332 333 331 327 324 324 324 324 326 325 324 326 328 337 340 336 336 335 333 329 328 329 330 331 331 332 333 334 334 334 334 333 332 333 333 330 325 321 317 314 313 314 314 315 317 321 327 330 328 328 328 328 328 327 327 326 325 323 322 317 314 320 323 322 324 323 321 320 320 319
311 313 314 315 315 315 315 316 317 319 319 318 317 318 318 319 320 320 321 321 321 321 322 323 323 324 327 331 330 326 324 322 322 324 324 325 326 325 325 329 337 338 335 336 337 335 330 329 332 332 333 333 334 335 335 335 335 335 334 332 331 331 331 327 323 319 314 313 313 314 315 315 316 320 326 328 327 327 327 327 326 325 324 322 318 317 315 315 322 324 324 324 324 323 322 320 318
311 312 312 312 312 313 315 317 317 317 317 316 317 317 316 317 318 318 319 320 320 320 322 322 323 326 327 328 326 323 322 320 320 323 326 325 327 328 326 327 334 337 336 335 336 335 332 332 334 334 334 335 336 336 335 335 335 335 335 333 330 330 331 329 326 320 315 314 313 313 313 314 315 316 320 324 326 325 325 326 324 321 321 321 316 315 315 315 321 325 324 323 323 323 323 321 318
310 311 310 310 312 314 316 316 316 316 315 315 316 316 315 315 316 317 317 318 318 319 321 320 322 326 327 328 327 325 326 325 321 323 327 327 329 333 332 329 331 335 335 333 334 335 334 333 335 335 335 335 336 336 335 335 334 334 333 333 332 331 331 330 327 322 317 314 313 312 310 310 313 317 320 322 323 322 322 324 323 319 320 321 318 317 316 314 320 324 324 323 324 323 323 322 319
311 311 309 310 314 315 316 315 315 315 314 314 315 315 315 315 315 315 316 316 317 318 318 317 318 320 320 323 323 322 326 329 327 326 327 329 331 335 336 334 332 333 334 333 332 332 334 335 334 335 336 335 335 335 335 335 334 333 332 332 332 331 330 330 328 324 318 314 313 311 310 309 310 315 321 321 321 322 321 321 321 318 319 322 320 317 315 314 317 322 323 324 324 323 322 322 319
313 312 310 311 315 316 315 315 314 314 313 313 313 314 314 314 314 314 315 315 317 317 316 315 315 315 315 316 316 317 320 324 328 330 329 329 332 335 336 337 336 335 334 334 332 330 331 334 335 335 336 335 335 334 334 334 334 334 332 331 330 330 329 328 328 327 321 316 314 311 310 310 309 311 316 321 324 325 324 322 319 317 317 319 319 316 314 312 313 319 322 323 324 323 321 319 316
312 313 312 311 315 316 315 315 314 313 313 312 312 312 313 313 313 314 314 314 315 316 315 314 314 314 314 314 315 315 316 317 320 325 329 330 331 333 335 336 337 337 336 335 333 331 330 332 334 334 335 335 334 334 333 333 334 333 333 331 329 328 326 324 324 325 322 319 316 312 312 314 311 311 315 320 324 324 324 323 320 318 316 315 314 312 312 311 309 314 319 320 321 321 318 314 312
311 312 311 312 314 314 314 314 313 313 312 311 311 311 311 312 312 313 313 313 314 314 314 314 314 314 314 315 315 316 317 318 318 319 322 326 329 330 331 333 336 337 337 336 334 333 332 330 332 333 334 334 335 334 333 333 334 333 333 331 330 329 325 322 322 321 320 319 318 314 315 319 318 317 319 322 325 324 324 323 320 319 317 312 310 309 310 309 308 311 315 315 315 316 315 311 312
310 311 311 313 313 313 313 312 312 312 312 311 310 310 310 311 312 312 312 312 312 313 313 313 313 313 314 314 314 315 317 318 318 318 319 323 326 329 330 330 333 335 337 337 336 334 334 332 331 332 334 335 335 335 333 333 333 333 333 331 330 329 327 325 324 323 321 320 321 320 318 321 322 322 322 323 325 325 324 322 319 320 318 313 310 309 310 309 310 313 313 312 311 311 312 312 316
310 310 311 311 312 311 311 310 310 311 311 311 311 310 310 311 311 311 311 311 312 312 313 312 312 313 313 313 313 314 315 316 315 316 318 322 325 327 329 330 331 334 336 337 336 335 334 334 333 332 332 335 335 334 334 333 333 333 333 332 331 329 328 328 327 326 325 323 325 325 321 321 321 322 322 322 324 325 324 321 321 322 321 319 316 313 313 311 311 314 317 317 315 314 316 317 319
309 309 310 309 309 309 309 309 310 311 311 311 311 311 311 311 311 311 311 311 312 312 312 312 312 312 313 313 313 314 314 314 314 315 317 320 322 324 325 328 331 333 334 335 336 336 335 334 334 332 331 333 334 334 334 333 334 333 333 333 331 329 328 329 329 328 327 326 326 326 324 323 320 320 322 322 322 324 324 322 322 323 323 323 321 319 319 316 314 315 319 321 320 319 320 320 320
307 307 308 308 308 308 309 310 310 310 310 311 311 310 311 311 311 310 310 311 312 312 311 311 312 312 312 313 312 313 313 313 313 314 314 316 318 320 321 324 328 332 334 334 334 335 335 335 334 334 332 331 333 333 334 333 334 333 333 333 331 330 329 328 328 328 328 327 326 326 325 325 322 319 321 323 323 322 323 323 323 323 322 322 321 321 321 320 319 318 319 321 321 321 321 320 320
306 306 306 307 308 308 309 309 310 309 309 310 310 309 309 309 310 310 310 311 311 311 311 311 312 312 312 312 312 312 312 312 311 312 312 313 314 316 319 321 324 327 331 334 334 334 335 335 334 334 333 332 332 333 333 333 333 333 333 333 331 330 330 329 328 328 328 327 327 326 325 325 324 320 319 322 323 321 321 323 323 322 321 320 319 320 321 321 320 319 319 320 320 321 321 319 317
307 307 306 306 307 308 309 309 309 309 308 309 309 309 309 308 309 310 311 311 311 311 311 311 312 312 311 311 311 311 310 310 311 311 311 311 312 313 316 319 321 324 327 331 334 334 335 335 334 333 334 333 332 332 333 333 332 332 333 333 331 330 329 329 328 327 327 327 327 327 327 326 325 322 319 319 321 320 319 319 320 321 321 319 319 319 320 320 319 318 317 317 317 318 318 317 316
307 307 306 306 307 308 310 309 308 308 308 307 308 309 310 309 310 311 311 311 311 311 311 311 311 311 311 311 310 310 310 310 310 310 310 309 309 310 312 314 317 321 325 329 331 333 335 335 334 333 333 333 332 332 333 333 332 332 332 332 331 330 329 329 329 328 326 326 327 327 327 327 325 323 321 319 320 322 320 318 317 318 319 319 319 318 318 319 319 318 317 316 315 315 315 314 314
306 306 307 307 308 308 308 308 307 307 307 306 307 309 310 311 311 311 311 311 310 310 310 310 310 310 310 310 310 310 310 309 309 309 308 308 308 309 310 311 313 316 322 326 329 332 333 334 334 333 333 333 332 332 333 333 332 332 332 332 331 331 330 329 329 329 327 325 326 327 327 327 325 323 321 319 319 321 320 318 317 316 316 317 318 317 317 318 318 316 315 314 313 312 312 310 310
305 306 307 307 307 306 306 307 307 306 307 307 307 308 309 309 309 309 310 310 309 309 309 309 309 310 310 310 310 309 308 308 307 307 307 307 308 308 309 310 311 313 317 322 327 330 332 333 333 333 333 333 332 332 332 333 333 332 332 331 331 331 330 329 329 329 327 326 325 326 326 326 326 324 321 318 317 319 319 317 317 318 318 317 317 317 316 317 316 314 311 311 310 309 308 308 307
305 306 306 306 306 305 305 306 306 306 306 307 307 307 307 307 308 308 308 308 308 308 308 308 309 309 309 309 308 308 307 306 305 305 305 306 306 307 308 309 310 311 313 317 322 326 329 331 332 333 333 333 333 332 332 332 332 332 332 332 331 330 329 329 329 329 328 328 326 326 326 326 326 325 322 319 316 317 317 318 318 319 319 319 318 317 315 314 314 312 310 309 308 308 307 307 307
305 306 306 306 306 306 306 306 306 306 306 307 307 307 307 307 307 308 308 307 307 307 307 307 307 307 306 306 306 306 305 305 304 304 304 304 305 305 306 307 308 309 310 312 316 321 326 329 331 332 332 332 332 332 332 332 331 331 331 331 332 330 329 328 329 328 328 328 327 327 326 326 326 325 323 321 318 316 316 317 319 319 319 318 318 317 315 313 313 312 310 309 309 308 308 308 308
305 305 306 305 306 306 305 306 306 306 306 306 307 308 308 307 307 308 308 307 306 306 305 305 305 305 305 304 304 304 304 304 303 303 303 303 304 304 304 305 306 306 307 309 311 316 322 326 329 330 331 331 331 332 332 332 332 331 331 330 331 331 330 329 328 328 328 327 328 327 327 326 326 326 325 323 320 318 317 317 318 319 320 319 318 316 315 313 312 311 311 310 310 310 309 309 309
305 305 305 305 306 306 305 305 306 306 306 306 307 307 307 307 308 308 306 304 304 303 303 303 303 303 303 303 303 303 303 303 303 303 303 303 303 303 303 303 304 304 305 307 308 310 314 319 324 328 329 329 330 331 331 331 331 331 331 331 330 330 330 329 329 328 328 327 327 327 327 326 325 325 325 324 322 319 318 318 317 318 319 319 318 315 313 312 311 311 310 310 311 311 310 310 310
304 303 304 305 305 305 304 305 306 306 306 306 307 307 308 308 307 305 303 302 302 302 302 302 302 302 302 302 302 302 302 302 302 302 302 302 302 302 302 302 302 303 303 305 306 307 308 310 314 320 324 327 329 328 327 329 330 331 330 331 330 330 329 329 329 328 328 327 327 327 327 326 326 325 324 323 322 321 320 319 318 317 317 317 316 314 313 312 312 311 311 311 311 312 311 311 310
304 302 302 304 304 304 304 305 306 306 307 307 307 308 308 306 303 302 302 302 302 302 302 302 302 302 302 302 302 302 302 302 302 302 301 302 302 302 302 302 302 302 302 303 304 304 305 307 308 311 315 321 326 326 326 325 327 329 330 330 330 330 329 328 328 329 328 328 327 327 327 327 326 326 325 324 323 322 322 321 320 318 317 315 314 314 314 315 314 313 313 312 312 312 311 311 311
304 302 303 303 303 304 304 305 305 306 307 307 308 308 305 303 302 302 303 302 301 301 301 301 301 301 302 302 302 302 301 301 301 301 302 302 302 302 302 302 302 302 301 301 302 302 303 305 306 307 309 312 318 322 325 325 325 326 328 330 330 330 329 328 328 328 328 328 328 328 327 327 327 327 326 325 324 324 323 323 322 321 319 317 315 315 315 316 316 315 314 313 313 313 313 312 311
303 302 303 303 304 305 305 305 305 306 307 307 308 307 304 303 303 302 302 302 301 301 301 301 301 301 301 301 301 301 301 301 301 301 302 302 302 302 301 302 302 301 301 300 301 301 302 302 303 305 306 308 310 314 318 323 326 326 327 329 329 329 329 328 328 328 328 328 329 328 328 328 328 328 328 327 326 325 325 324 323 323 321 319 318 317 316 316 316 316 316 315 314 314 313 312 311
304 303 303 304 304 305 305 305 306 306 307 307 308 309 305 304 304 302 301 301 301 300 300 300 300 300 300 300 300 300 301 301 301 301 301 301 301 301 302 301 302 301 301 300 300 301 301 301 302 302 303 305 306 308 311 315 321 325 327 327 327 327 329 329 329 328 328 328 328 328 328 328 327 328 328 328 328 326 326 326 325 323 322 320 319 319 317 316 316 316 316 316 315 314 312 311 312
304 303 303 303 304 305 306 306 307 308 308 307 307 310 308 305 303 302 302 301 300 300 299 299 300 300 300 300 300 300 300 300 300 300 301 301 301 301 301 301 301 301 300 300 300 300 300 300 301 301 302 303 304 305 307 309 313 318 322 325 325 325 326 328 329 328 328 328 328 328 328 328 328 327 327 328 328 328 327 327 326 324 322 321 320 320 319 319 317 316 315 316 315 314 313 314 313
303 303 303 303 303 306 307 307 308 309 309 308 305 308 309 307 304 302 302 301 300 299 299 299 299 300 300 300 300 300 300 300 300 300 300 300 301 301 301 301 300 300 299 299 299 299 300 300 300 301 301 302 302 303 304 305 308 311 315 319 322 323 325 326 327 327 328 328 328 328 328 328 328 328 327 326 327 328 327 327 326 326 324 323 322 322 321 320 319 317 316 316 315 314 315 315 313
303 303 303 303 304 306 308 308 308 309 309 308 304 304 309 311 307 304 303 301 299 298 298 298 299 299 300 300 300 299 299 299 299 300 300 300 300 300 300 300 299 299 298 298 299 299 299 300 300 300 300 301 301 302 302 303 304 307 310 312 315 318 320 324 326 326 327 328 328 329 329 329 329 329 328 327 326 326 327 327 327 326 325 325 324 324 322 321 320 319 318 317 317 316 316 315 314
302 302 303 303 304 307 308 308 308 309 309 305 302 303 308 311 308 304 303 301 298 298 298 298 299 299 299 299 300 300 299 299 299 299 299 299 299 299 299 299 298 297 297 298 298 298 299 299 299 300 300 300 300 301 301 302 302 303 306 307 310 312 314 318 322 325 326 326 326 327 328 329 329 329 329 329 328 327 327 326 326 326 325 325 325 325 324 323 322 321 320 319 318 317 316 315 315
301 302 303 304 307 308 308 309 309 309 308 303 301 302 305 308 307 304 304 301 298 298 298 298 299 299 299 299 299 299 299 299 299 299 299 299 298 298 297 297 297 296 296 296 297 297 298 298 299 299 299 299 300 300 301 301 302 302 303 304 305 308 311 312 314 317 321 324 325 326 326 327 328 328 328 329 329 329 329 328 327 326 326 325 325 325 325 325 324 323 321 320 319 318 318 317 316
302 303 303 305 308 309 308 309 309 307 305 302 300 301 303 306 306 304 302 300 298 298 297 298 298 298 299 299 299 299 299 299 299 299 299 298 298 297 297 296 296 296 295 295 296 296 297 297 297 298 298 299 299 299 300 300 301 301 301 302 302 304 307 310 311 312 314 318 322 325 325 326 327 327 327 327 328 328 329 330 329 328 327 326 325 325 325 326 325 324 323 322 321 320 319 318 317
302 303 303 304 306 307 305 307 307 304 303 302 300 301 304 307 307 304 301 299 298 298 297 297 298 298 298 299 299 299 299 299 299 298 298 298 297 297 296 296 296 295 295 295 295 295 295 296 296 296 297 297 298 299 299 299 300 300 300 301 301 302 303 306 308 311 312 313 317 321 324 325 326 326 326 327 327 328 329 329 330 329 328 327 326 325 325 325 325 325 325 324 323 322 321 320 319
301 302 302 303 303 303 302 303 303 302 302 302 300 302 306 307 307 304 301 300 298 297 297 297 298 298 298 299 299 299 298 298 298 298 298 297 297 297 296 296 295 295 295 294 294 294 294 294 294 295 295 296 296 297 298 298 299 299 299 300 300 301 302 303 305 307 310 312 313 316 320 323 325 326 326 326 327 328 329 329 329 329 329 328 327 326 325 324 325 325 325 325 324 323 322 321 320
301 301 302 303 302 301 301 301 301 302 303 301 300 302 305 306 305 304 301 300 299 297 298 298 298 298 298 298 298 298 298 298 298 298 298 297 297 297 296 296 295 295 294 294 294 294 294 294 294 294 294 295 295 295 296 297 298 298 299 299 299 300 301 302 303 304 307 310 312 313 316 319 322 324 326 325 325 327 328 328 329 329 329 329 328 327 326 325 324 324 325 325 324 324 323 323 322
301 301 301 303 302 301 301 300 300 302 302 300 301 302 303 303 305 304 301 300 299 298 297 297 298 298 298 298 298 298 298 297 297 298 298 297 297 296 296 295 295 294 294 294 293 293 293 293 293 293 293 294 294 294 295 295 296 297 298 298 299 300 300 302 303 303 304 306 309 311 313 315 318 321 324 325 325 326 326 327 329 329 329 329 329 329 327 326 324 323 323 324 324 324 324 324 324
301 301 302 302 301 300 301 300 300 301 301 301 302 302 302 302 304 303 301 300 299 298 298 297 297 297 298 298 298 297 297 296 297 297 298 297 297 296 296 295 294 294 293 293 293 292 292 292 292 292 292 293 293 293 294 294 295 295 296 297 298 299 300 301 302 303 303 304 307 309 311 312 313 315 319 322 325 326 326 327 327 328 329 329 330 329 329 327 325 324 324 323 323 323 323 324 324
301 301 301 301 301 301 301 301 300 300 301 302 302 301 301 301 302 302 301 300 299 298 298 297 297 297 297 298 297 297 296 296 296 296 297 297 297 296 295 294 294 293 293 293 292 292 292 291 291 291 292 292 292 292 293 293 294 295 295 296 296 297 299 300 301 302 303 304 305 307 309 311 312 312 313 316 320 322 324 326 327 328 328 329 329 329 329 328 327 326 325 324 324 323 323 323 324
300 301 300 299 301 301 300 299 299 299 300 301 300 299 300 299 300 302 301 299 299 298 298 297 297 297 297 297 297 296 296 295 295 295 296 296 296 296 295 294 293 293 292 292 292 291 291 291 291 291 291 291 291 291 292 292 293 293 294 295 295 296 297 298 299 300 301 303 304 305 307 309 311 312 312 314 316 318 320 322 326 328 327 327 328 329 329 329 328 327 327 326 325 325 324 324 324
300 300 299 299 300 300 299 298 299 299 299 300 300 299 298 299 300 301 300 298 298 298 297 297 296 296 296 297 297 296 295 295 295 294 294 295 296 296 295 293 293 292 292 292 291 291 291 291 290 290 290 290 290 290 290 291 292 292 293 293 294 295 296 297 298 299 300 302 303 304 306 307 309 311 312 313 315 316 317 317 320 323 325 326 327 328 328 329 329 328 328 327 326 326 326 326 325
299 300 299 298 298 298 298 297 298 299 299 300 300 299 299 299 299 298 298 298 298 298 297 297 296 296 296 296 296 296 295 295 294 294 294 294 295 295 295 293 292 292 292 291 291 291 290 290 290 290 290 290 290 290 290 290 291 291 292 292 293 294 295 296 296 298 299 300 302 303 305 306 307 309 310 312 313 315 317 318 317 318 321 324 326 327 328 328 329 329 328 327 327 327 327 326 326
299 300 299 298 297 297 298 298 298 298 298 299 299 298 299 299 298 297 298 298 298 297 296 296 296 296 296 296 296 296 295 295 294 294 293 293 294 294 294 293 292 292 291 291 291 291 290 290 290 290 290 290 290 289 289 289 289 290 291 291 291 292 294 295 296 297 298 299 300 302 304 305 306 307 309 310 312 313 315 318 320 319 319 320 323 325 326 327 328 329 329 328 328 328 327 327 327
298 299 298 297 297 297 297 297 298 297 297 298 298 297 297 297 298 298 298 298 297 296 296 295 295 295 296 296 296 295 295 294 294 293 293 293 293 293 293 293 293 292 291 291 291 290 290 290 290 289 289 289 289 289 289 289 289 289 289 290 290 290 291 293 295 296 298 298 299 300 302 304 305 306 307 309 311 312 312 315 319 322 322 322 322 322 324 326 327 328 328 329 329 328 328 327 326
Wind_Speed
7 7 6 3 3 5 3 5 4 2 2 4 4 6 3 3 2 1 3 3 4 5 10 6 4 3 4 4 4 7 8 5 5 4 2 3 6 6 11 14 13 12 8 10 12 20 25 23 22 20 19 19 18 17 15 14 12 11 10 8 8 8 9 8 8 8 9 10 11 11 10 10 10 11 11 9 8 7 5 4 5 6 7 7 7 8 10 11 11 10 9 8 7 5 7 9 9
6 7 6 3 3 4 5 6 3 2 3 4 5 6 1 3 1 0 2 7 6 6 9 7 4 3 3 5 6 6 6 4 10 8 7 5 6 7 12 15 13 12 8 9 11 18 25 24 23 20 19 19 18 18 15 14 12 11 9 8 8 8 9 9 9 9 11 11 11 11 9 9 10 10 10 9 8 7 6 6 5 6 8 8 8 9 9 10 10 10 9 8 7 6 5 8 7
5 6 5 4 4 4 6 5 3 3 4 4 5 5 2 3 2 4 9 11 9 8 9 7 4 3 3 4 4 4 3 9 11 9 9 7 4 6 10 15 13 11 8 8 9 15 23 24 23 20 19 19 18 18 16 14 12 11 10 8 8 8 9 9 10 10 12 12 12 11 9 10 10 10 10 10 9 7 7 6 6 7 8 7 8 9 8 9 10 10 10 8 7 6 6 6 5
4 5 5 4 4 4 4 3 3 4 4 4 4 3 2 1 3 7 13 11 10 10 8 7 4 1 2 4 5 5 3 12 10 7 8 6 3 3 7 13 13 12 10 8 9 13 20 23 21 20 19 19 19 18 16 14 12 11 10 9 8 8 8 9 10 12 13 12 12 10 9 10 10 10 10 10 10 9 8 7 6 7 9 8 8 8 8 9 10 10 9 8 7 6 7 6 5
4 3 4 2 2 3 2 2 3 5 5 5 4 1 2 3 4 6 12 11 9 8 5 6 3 2 3 4 4 4 3 9 7 5 5 4 2 2 4 10 14 14 12 9 10 11 16 21 22 20 20 19 18 17 15 14 13 12 11 9 8 8 8 8 10 12 13 13 12 10 10 9 10 11 11 11 11 10 10 9 6 7 9 9 9 9 8 8 8 10 9 8 7 7 8 6 4
3 1 3 2 4 4 3 3 4 5 6 6 5 4 2 2 1 6 7 10 8 5 2 2 3 5 5 4 2 2 4 4 5 3 2 1 0 1 4 10 14 15 13 11 10 10 12 18 22 21 20 19 19 17 15 14 13 12 12 10 8 7 7 7 9 11 13 13 12 11 11 10 10 11 12 12 12 11 11 9 7 7 10 10 10 10 8 7 8 8 9 9 8 9 10 7 3
2 2 3 4 6 4 2 5 5 5 6 7 7 8 6 4 5 6 2 5 5 6 3 2 3 5 4 3 2 1 3 0 2 1 2 2 1 2 4 11 14 15 15 13 12 10 8 12 20 22 20 19 19 17 15 15 14 13 12 10 8 7 6 6 8 11 13 13 13 12 12 11 11 11 12 12 12 12 11 10 9 8 9 10 11 9 7 8 8 9 10 11 11 11 13 10 6
2 5 4 3 3 3 3 5 7 6 6 9 9 10 12 4 7 3 2 1 1 3 4 5 3 3 2 3 1 3 3 1 2 2 3 2 1 3 5 11 13 14 17 15 14 12 7 7 15 21 21 20 19 16 15 15 14 14 12 10 8 6 5 5 8 11 14 14 13 13 12 12 12 12 12 12 13 12 11 11 10 9 9 10 11 10 9 8 9 10 12 13 14 14 15 13 9
3 7 5 3 3 3 4 5 6 8 8 10 11 13 16 3 5 4 3 1 3 4 3 8 5 2 6 8 4 4 2 4 4 3 3 1 2 4 6 10 12 13 18 17 16 14 10 6 9 17 21 20 19 16 15 15 14 14 12 10 8 6 5 6 8 10 14 15 14 14 13 13 13 12 12 13 14 13 12 12 11 10 9 10 10 10 10 10 10 10 12 14 15 15 15 13 11
5 8 5 2 3 5 5 6 6 7 9 10 12 17 20 12 6 6 1 3 4 5 1 7 1 4 7 7 5 5 5 6 4 4 2 1 2 4 6 10 11 13 18 19 17 14 12 10 8 12 19 20 19 17 16 15 14 13 12 10 8 6 5 5 8 10 14 17 16 15 14 14 14 13 13 14 14 14 14 13 12 12 11 11 11 11 12 12 13 12 13 15 15 15 14 14 13
5 9 7 3 3 5 5 5 6 7 9 9 11 16 21 19 8 1 1 5 5 6 3 4 3 4 5 2 7 7 8 5 3 4 2 1 3 5 7 11 12 14 18 18 17 15 15 13 11 10 15 20 20 18 16 15 15 13 12 10 8 6 5 5 8 12 15 18 18 17 16 15 15 14 14 15 15 14 15 14 14 14 13 15 14 13 13 13 14 15 15 16 15 14 14 13 14
4 5 5 3 4 5 5 6 6 7 9 7 9 13 21 21 8 1 4 6 6 8 5 5 3 1 4 2 9 8 8 5 1 4 1 2 4 6 9 11 12 15 17 17 17 16 16 14 13 12 13 19 21 19 16 15 16 14 12 11 9 6 5 6 8 11 14 17 19 18 17 17 16 15 16 16 16 16 16 16 16 16 15 16 14 12 12 11 13 16 18 17 15 14 13 13 13
5 4 3 4 4 5 6 6 6 6 7 6 8 10 12 11 2 1 6 7 9 6 3 1 3 3 3 4 11 6 5 3 1 2 1 4 5 7 10 12 13 16 17 16 17 16 15 14 13 12 14 19 22 19 17 16 15 14 13 12 10 7 6 7 8 11 13 14 17 18 19 19 18 17 17 17 17 17 17 17 17 16 16 16 15 14 13 13 13 16 19 19 18 16 14 14 13
6 6 4 3 3 4 6 5 5 6 5 5 8 11 6 5 4 3 7 7 4 2 6 7 7 3 3 4 9 6 6 6 5 2 2 4 5 7 10 12 14 16 18 17 17 16 15 13 11 12 15 20 21 19 18 16 16 14 14 13 11 9 8 8 8 10 12 13 15 19 20 20 21 20 19 19 19 19 19 19 18 18 18 19 19 17 15 15 13 15 19 20 20 18 16 16 15
6 8 4 3 3 4 4 4 5 5 4 3 10 17 7 4 3 5 6 5 3 7 6 6 5 3 6 5 5 6 7 10 10 7 4 3 5 8 9 11 15 16 16 16 17 16 14 12 11 12 15 19 20 18 18 17 16 16 15 15 12 11 10 9 9 9 11 13 15 17 20 21 22 22 22 21 21 22 22 21 21 21 21 21 21 20 17 14 12 13 15 15 15 14 14 16 17
5 6 3 2 4 4 4 4 6 4 4 5 15 21 9 4 8 5 5 7 8 9 8 5 5 5 7 8 5 3 7 11 12 10 8 4 4 7 9 10 15 16 15 15 16 16 14 12 11 11 15 18 19 17 17 16 16 16 17 16 14 13 12 11 10 10 10 13 15 17 19 21 23 24 23 22 22 23 23 23 22 22 23 23 23 20 16 13 13 13 12 12 12 12 13 16 19
4 3 2 3 3 4 3 3 3 3 4 11 17 21 11 7 16 12 6 6 7 8 7 5 6 5 5 6 3 6 10 12 12 10 9 6 5 6 8 10 13 15 14 14 15 16 14 11 11 11 14 17 18 18 17 17 17 17 17 17 16 16 14 13 12 12 12 12 15 17 19 22 23 25 26 25 24 24 24 24 24 24 23 23 22 18 15 14 15 14 13 13 13 14 15 17 18
4 2 2 4 3 2 3 3 5 5 6 10 13 18 13 10 17 15 9 7 6 7 6 5 3 5 5 6 7 10 12 13 15 12 9 8 5 6 7 9 13 14 15 15 16 16 14 12 12 12 14 16 17 17 18 18 18 18 18 18 17 17 16 16 15 14 13 13 14 16 20 22 25 26 27 27 27 26 25 25 26 25 23 22 21 17 14 15 17 16 15 14 15 16 16 17 19
5 2 3 4 2 2 8 8 9 9 8 10 12 17 13 12 16 13 10 11 13 8 3 8 9 12 11 11 12 14 13 13 16 13 9 9 5 5 8 8 11 13 15 16 16 16 14 12 13 13 14 16 17 17 17 18 18 18 19 19 19 19 19 19 18 17 16 15 15 16 18 21 24 26 27 26 25 25 26 26 27 26 24 23 22 19 15 16 18 17 16 16 16 17 17 17 19
6 3 4 2 2 4 12 13 12 13 12 10 11 15 13 15 16 12 10 11 12 6 10 17 16 16 15 13 14 15 13 12 15 13 9 8 6 4 6 9 10 11 14 16 16 17 15 13 14 15 15 15 18 19 19 18 18 18 18 20 20 20 21 22 21 20 18 17 17 17 18 20 21 24 26 22 17 19 21 24 25 25 25 25 24 22 18 17 20 20 18 18 18 19 18 17 19
5 2 5 1 7 4 11 15 14 16 16 12 12 12 11 15 14 13 13 9 6 5 15 19 18 20 19 17 16 15 12 12 13 13 11 8 6 6 6 8 10 10 12 15 15 15 16 16 14 15 17 16 18 19 20 21 20 19 18 19 20 20 22 24 24 22 21 19 19 18 17 18 20 22 23 20 16 18 20 21 22 23 23 24 24 23 20 19 21 23 22 21 21 20 18 17 19
7 4 10 6 9 5 10 15 14 17 17 14 12 9 11 13 11 12 12 6 5 12 19 21 22 21 19 19 18 14 13 13 12 13 12 9 7 7 7 7 9 10 12 14 15 15 15 17 16 16 17 18 18 19 21 22 23 21 20 19 19 20 21 23 24 24 24 21 20 19 15 15 17 18 18 19 20 21 21 22 22 20 20 22 23 22 21 21 20 23 25 24 24 23 21 17 15
4 4 12 10 10 7 12 15 13 16 17 15 13 13 15 13 10 12 11 8 12 19 23 22 20 18 16 15 15 14 14 14 13 12 12 11 10 8 8 8 8 11 13 14 15 15 16 17 18 17 17 19 19 20 21 23 24 24 22 20 20 19 19 20 20 21 22 22 21 18 16 15 15 16 16 17 19 20 21 23 22 19 17 18 19 19 20 21 19 20 23 24 24 22 20 16 12
4 4 9 13 13 11 13 17 15 14 14 15 16 17 15 12 10 11 12 14 18 20 20 18 16 15 15 15 15 15 14 14 14 14 13 11 10 9 9 8 8 10 13 15 15 15 16 17 18 19 17 19 20 20 22 23 24 25 23 22 21 19 18 18 18 17 17 19 20 19 18 18 17 16 16 18 19 21 21 20 19 17 17 16 16 17 17 19 18 18 19 19 19 18 16 14 12
5 6 12 15 14 14 15 16 15 12 12 13 14 13 12 13 12 12 14 16 15 12 10 13 17 16 15 15 15 15 14 14 15 15 14 12 10 10 10 10 9 10 12 14 16 15 15 17 18 20 19 20 21 20 21 22 23 23 24 24 22 20 19 19 18 16 15 16 20 20 19 20 21 20 19 19 21 24 22 18 16 16 17 16 15 16 16 17 17 17 16 15 15 16 14 14 14
10 11 14 15 15 16 14 13 12 11 11 10 9 8 10 12 10 9 10 8 7 5 7 11 16 15 14 14 14 15 15 15 15 15 14 13 12 11 11 11 11 10 11 12 15 16 15 17 18 20 20 22 23 21 21 21 23 23 23 23 23 22 20 20 20 18 17 17 19 20 20 21 22 22 21 20 21 23 22 19 17 17 18 18 17 17 18 17 16 16 16 16 16 16 16 15 17
12 12 13 13 14 14 12 11 9 9 8 7 6 6 10 12 6 6 5 9 9 6 8 11 13 13 12 14 14 14 14 14 15 15 15 15 14 13 13 12 12 11 11 11 13 17 17 15 17 19 20 22 23 23 22 22 23 24 23 22 24 23 21 22 22 21 20 19 20 21 21 22 23 22 22 21 21 21 21 20 20 21 20 20 19 19 20 19 18 17 18 18 18 18 19 19 19
11 11 10 10 12 11 10 6 7 9 7 12 10 8 12 14 7 6 4 12 12 7 8 9 10 11 11 12 12 12 13 14 16 17 16 16 15 15 13 11 12 12 12 12 11 14 18 16 15 17 19 21 22 23 23 23 23 23 23 22 24 24 23 23 24 24 24 22 21 22 22 23 23 22 23 23 23 22 22 22 22 23 22 21 21 21 22 22 22 22 21 22 21 21 22 22 21
11 9 5 7 7 4 4 7 12 10 8 17 14 9 10 9 2 6 8 12 10 9 8 8 10 9 10 11 10 12 14 15 17 17 16 15 15 14 12 10 10 10 9 11 11 12 16 17 15 15 18 20 22 23 24 24 24 23 23 24 24 24 25 25 24 24 25 24 23 22 23 24 24 23 23 23 24 24 23 24 24 24 24 23 22 22 23 23 24 24 24 24 24 24 24 23 22
12 7 1 5 3 4 9 11 13 9 11 22 14 5 3 5 11 14 13 12 11 10 9 9 10 9 10 9 8 13 18 19 20 21 20 19 17 15 13 11 9 8 6 6 9 11 13 16 16 15 17 19 21 24 25 24 25 25 25 26 25 25 25 26 26 25 25 26 25 25 25 26 26 25 24 24 24 25 24 24 25 26 26 25 25 24 24 24 25 26 25 25 25 25 25 25 24
9 7 2 3 3 5 7 10 11 9 13 24 14 2 2 8 12 14 13 12 13 12 11 10 11 11 11 10 13 18 21 21 23 25 24 22 21 18 16 14 11 8 7 6 6 9 11 14 16 17 18 18 18 21 25 25 25 25 26 27 27 26 26 27 28 28 26 26 26 26 27 28 28 27 25 25 25 27 27 26 26 26 26 26 26 26 25 26 27 28 27 27 27 27 27 27 27
9 7 4 5 5 5 7 9 14 10 11 19 11 3 3 3 9 16 14 14 15 13 13 13 14 15 18 21 23 23 24 24 26 27 26 26 25 23 20 18 14 10 8 6 5 6 9 11 14 17 19 19 17 17 22 26 26 26 26 26 28 28 27 28 29 28 27 26 26 27 29 30 30 29 28 26 26 27 29 28 27 26 26 26 26 26 27 28 29 29 28 28 29 29 29 29 29
7 6 5 7 7 5 6 7 14 14 9 11 8 4 5 5 12 19 16 14 14 12 13 15 19 24 27 27 26 25 26 28 29 30 29 29 27 26 24 21 18 14 10 7 5 4 5 8 11 14 17 20 19 18 18 23 25 27 27 27 27 28 28 29 30 29 28 28 28 28 29 30 31 32 31 29 27 27 28 28 27 27 27 27 26 26 27 28 28 29 29 30 30 31 31 31 31
5 5 4 6 8 6 6 8 13 16 10 8 6 4 6 8 12 18 17 14 13 11 14 21 27 29 28 27 27 27 28 29 31 31 31 31 30 29 28 25 23 21 17 11 7 6 5 5 7 10 13 17 20 21 19 19 21 23 26 28 28 28 27 28 30 30 29 29 30 31 30 30 31 32 33 32 30 28 28 28 28 28 27 27 27 27 27 27 27 28 29 30 31 32 32 33 33
6 6 5 6 7 7 8 8 10 14 11 8 6 4 6 9 11 16 18 17 18 20 24 28 29 28 28 28 28 28 28 29 30 30 30 32 32 31 31 29 28 27 25 20 13 8 6 5 6 6 8 12 16 20 21 20 21 21 22 25 28 29 28 27 28 29 29 29 31 32 32 32 32 33 34 33 32 31 29 28 28 28 28 28 28 28 28 29 28 28 29 30 30 32 33 33 33
9 8 6 6 6 6 8 8 9 12 9 7 6 5 5 7 8 10 21 30 30 30 30 28 27 28 29 29 29 29 29 30 29 30 31 32 33 33 33 33 31 31 30 27 21 15 11 8 7 7 7 8 10 14 19 21 22 22 22 23 26 28 29 28 27 27 28 29 31 32 32 32 32 34 35 35 34 34 33 32 30 29 29 29 30 31 31 31 30 29 29 29 29 30 31 32 32
9 8 7 7 6 6 9 8 9 12 7 6 7 7 6 5 6 14 28 34 29 28 27 27 27 27 28 28 29 29 28 29 29 31 32 33 34 34 35 35 35 35 33 30 28 25 22 17 12 9 9 9 8 9 14 18 22 24 23 24 24 25 26 28 28 28 30 31 31 30 31 32 32 33 34 35 35 35 35 35 33 31 31 32 33 33 32 32 31 30 29 29 30 31 31 31 29
8 7 6 6 6 7 9 7 10 11 6 5 5 6 8 10 15 19 27 25 21 24 25 25 27 25 26 27 27 27 27 30 31 33 34 35 36 36 37 37 37 37 36 34 32 31 29 25 21 16 11 10 11 10 11 14 18 23 25 25 24 24 25 26 28 30 31 33 31 30 32 33 34 33 32 34 35 36 36 36 36 35 35 35 35 35 33 32 31 31 31 31 32 32 32 30 27
7 7 5 5 7 7 7 7 11 10 4 3 4 3 9 16 16 18 23 19 18 25 25 24 25 24 24 26 26 27 28 31 32 33 35 35 36 37 37 38 37 37 37 36 35 34 32 30 28 24 18 13 11 13 14 13 15 18 22 25 25 25 25 25 26 27 28 30 31 31 33 34 35 34 32 32 34 36 37 37 37 37 36 35 36 36 36 34 33 33 33 33 33 32 31 30 28
6 6 6 5 8 7 5 8 13 11 6 6 7 5 9 12 11 14 18 19 21 23 23 23 24 23 23 24 26 27 29 31 31 32 34 35 36 37 38 38 37 38 39 39 38 36 35 34 32 30 26 21 16 13 15 18 18 17 18 21 24 27 27 25 25 26 27 29 30 31 32 33 34 34 33 31 33 36 37 37 37 37 37 37 37 37 38 38 37 36 35 34 34 34 33 32 31
4 8 7 6 9 7 5 8 12 9 5 6 9 7 6 7 8 9 10 16 18 19 22 22 23 23 22 24 26 27 28 29 30 31 33 34 36 37 37 37 37 38 39 39 39 37 36 35 33 33 30 28 24 20 16 17 19 20 19 18 21 25 28 28 28 28 29 30 31 32 33 33 32 33 34 34 34 35 36 37 37 38 39 38 38 38 38 39 39 38 37 37 37 36 36 34 32
4 7 8 8 10 10 7 8 10 5 1 5 6 4 1 3 6 6 5 9 11 14 19 19 21 23 23 24 25 26 27 28 29 30 32 33 35 36 37 37 38 38 38 38 38 37 36 35 34 33 32 31 30 27 23 19 16 18 20 20 19 22 26 29 30 30 29 31 32 33 34 35 34 33 34 36 37 37 38 38 38 39 39 39 39 39 38 38 39 40 39 39 39 38 36 34 34
4 6 9 9 10 10 8 8 7 3 2 5 5 3 1 1 4 4 4 6 7 10 13 15 19 21 22 23 24 26 27 28 29 30 31 32 33 35 36 37 37 38 38 38 38 37 36 35 35 35 34 33 32 31 29 26 22 17 17 21 22 22 23 26 28 30 30 30 30 32 34 35 35 35 34 35 37 39 40 40 40 40 40 40 39 39 40 40 40 40 40 41 41 39 37 37 36
3 8 12 11 10 8 6 6 6 3 3 4 5 6 0 1 2 2 4 6 6 8 9 12 17 20 21 22 23 25 26 27 29 29 31 32 32 33 34 34 36 37 38 39 40 39 37 36 36 36 35 34 33 32 31 30 28 24 19 18 20 23 25 25 26 27 30 31 31 31 32 33 33 34 34 34 34 36 39 42 43 42 42 41 41 41 42 41 41 41 41 41 41 40 40 40 39
4 12 14 12 9 6 4 4 5 3 4 3 7 7 2 0 1 1 2 4 6 8 8 10 15 18 20 21 23 25 25 26 27 27 29 30 31 31 31 32 34 37 39 40 41 40 39 38 37 37 37 36 35 34 32 31 30 28 25 22 20 20 23 27 27 27 28 30 32 33 33 33 33 33 34 34 34 34 35 38 41 43 44 43 43 43 43 42 41 41 42 42 42 42 42 41 40
11 15 13 10 7 5 4 4 4 3 3 3 7 7 3 1 1 2 3 3 4 6 5 8 14 17 19 20 21 23 24 26 26 26 26 27 29 30 31 31 33 37 39 40 41 42 41 40 39 39 38 38 38 36 35 33 31 30 29 27 25 22 21 23 26 28 28 28 31 33 34 34 35 35 36 36 36 36 36 35 37 40 43 44 45 44 43 42 42 42 43 43 42 43 43 42 41
16 14 9 6 4 4 2 4 4 1 1 3 7 8 4 1 1 2 1 1 3 4 4 6 12 16 18 19 20 21 23 24 25 26 26 27 28 30 32 33 34 37 39 41 42 43 42 42 42 42 40 39 39 38 38 36 34 33 32 31 29 27 25 23 23 25 26 27 28 31 33 35 35 36 36 37 38 39 38 38 37 38 39 42 45 46 45 44 44 43 43 43 44 44 44 43 42
13 8 6 4 1 1 1 2 2 1 1 3 8 9 4 1 2 2 1 2 4 4 5 6 9 14 17 18 18 20 21 22 24 25 26 27 29 31 33 34 35 38 41 42 43 43 43 43 44 44 43 43 41 39 39 39 37 35 35 34 32 30 28 26 25 24 24 25 27 28 31 34 36 36 36 36 37 39 40 40 39 38 39 40 42 44 46 46 45 44 44 45 45 45 45 44 43
9 6 6 5 3 3 2 3 3 1 2 4 8 9 3 2 1 3 4 4 3 4 8 7 10 14 16 17 18 19 20 21 22 23 25 26 28 31 33 34 36 38 41 42 42 43 44 44 45 44 44 45 44 42 41 40 39 38 37 36 35 33 30 28 26 25 24 24 25 27 28 31 34 36 37 36 36 38 40 40 40 40 41 41 40 41 43 46 46 46 46 46 46 46 46 45 44
7 6 6 4 2 4 3 3 3 2 3 7 10 6 0 3 1 5 6 5 2 7 12 11 12 14 15 16 16 18 19 21 22 21 22 23 26 28 30 33 34 36 39 40 41 42 43 44 45 45 45 44 45 45 44 43 42 41 39 39 38 36 33 30 28 27 25 24 24 25 28 30 32 34 37 37 37 37 38 39 40 41 41 41 41 39 39 42 45 46 47 47 46 45 45 45 44
5 4 4 3 3 3 1 2 3 3 4 8 9 3 0 3 2 6 8 9 4 7 13 13 13 12 14 15 16 18 20 21 23 22 20 21 24 26 28 31 33 34 37 38 40 41 42 43 44 45 46 45 45 45 45 45 44 43 42 41 40 38 36 32 29 28 27 26 24 24 26 29 32 34 35 36 37 37 38 39 39 39 40 41 41 40 38 38 41 43 46 47 46 45 44 44 44
4 3 4 2 2 1 2 3 4 4 4 5 4 1 2 2 2 7 8 9 5 5 11 16 16 14 13 14 16 18 20 22 24 23 22 22 23 25 26 29 31 33 36 37 38 40 41 42 43 45 46 45 45 46 46 46 45 45 44 43 42 40 38 34 31 29 28 27 26 25 25 26 29 33 35 36 37 37 38 40 40 39 39 40 41 41 38 37 38 39 41 44 45 45 45 45 44
2 3 2 1 2 3 1 4 4 3 3 3 1 2 3 1 1 5 7 6 3 4 10 16 18 17 15 14 15 18 20 23 24 24 23 23 24 25 25 27 30 33 35 37 37 38 39 41 42 44 45 45 46 46 47 46 46 45 45 44 44 43 41 38 35 32 30 29 28 27 26 26 26 28 31 34 37 38 39 40 40 39 39 39 41 41 39 38 37 38 38 40 42 43 44 45 45
0 2 2 2 2 4 1 2 3 2 3 3 2 3 4 3 2 3 5 2 2 3 8 14 15 16 15 15 16 17 20 22 23 24 24 25 25 25 25 27 29 31 34 36 37 38 39 40 40 42 44 45 45 46 47 47 46 46 46 45 45 44 43 41 39 37 34 32 30 28 27 27 26 26 26 30 33 37 40 41 40 41 40 39 40 41 41 39 38 39 39 38 39 41 41 42 43
0 2 3 3 2 1 2 1 1 2 3 4 3 4 4 4 1 1 2 3 5 5 8 11 12 14 15 17 17 18 20 22 23 24 25 26 26 25 26 27 28 31 33 35 37 39 40 40 40 41 42 42 44 46 47 47 46 46 46 46 45 44 44 43 42 40 37 34 32 30 27 26 26 27 26 27 29 33 37 40 42 44 43 40 39 41 41 41 40 41 41 38 37 39 40 41 40
2 2 4 2 1 1 1 0 1 2 2 4 4 4 2 2 1 4 6 5 6 8 8 9 13 15 16 18 17 18 21 22 24 25 26 28 27 27 27 27 28 30 31 34 36 38 40 41 41 42 42 42 43 45 47 47 47 47 46 46 46 44 44 43 43 42 39 36 34 32 30 27 26 27 27 27 28 31 34 36 38 42 44 43 42 42 41 41 42 43 43 40 38 38 39 40 40
4 3 3 3 2 0 1 1 1 1 1 2 3 4 4 1 4 6 6 6 7 9 9 10 15 18 18 18 18 18 20 23 24 26 27 28 28 28 28 28 29 29 30 33 35 37 39 40 41 42 42 42 43 45 47 48 48 48 47 47 47 46 45 44 43 42 41 39 37 34 31 29 27 26 26 27 28 29 33 35 35 36 41 45 45 44 42 41 43 45 43 41 39 39 40 40 39
2 2 2 2 2 2 2 3 1 1 1 2 3 7 7 2 4 5 3 5 9 13 14 14 19 22 22 21 18 17 20 23 25 26 29 30 29 30 30 31 31 30 31 33 34 36 39 39 41 42 43 43 44 45 46 47 47 49 49 48 48 47 46 45 44 43 41 41 39 37 33 31 29 27 26 26 27 28 30 34 36 34 34 39 44 45 43 43 46 47 44 41 41 41 43 42 38
Wind_Direction
358 355 358 3 352 10 312 252 263 224 223 260 255 263 264 318 26 40 284 94 115 49 31 3 356 340 318 339 323 329 310 308 41 64 129 159 156 139 134 140 178 199 222 216 198 191 189 194 200 202 191 187 188 184 182 175 173 168 164 164 162 164 164 166 158 149 143 141 143 146 152 147 144 152 159 161 159 159 155 132 93 102 126 120 114 116 115 121 126 133 141 144 162 166 154 157 154
356 1 359 13 339 337 273 228 242 271 229 250 250 249 188 63 15 194 7 55 73 51 32 7 344 312 300 320 302 299 303 8 63 92 124 128 144 145 151 154 186 204 216 222 203 193 192 195 202 204 196 192 190 187 184 177 176 172 169 166 165 168 169 173 163 154 149 148 151 154 159 154 155 161 164 165 165 168 162 141 110 110 132 136 132 127 125 131 136 143 153 160 171 187 181 167 162
341 355 358 24 330 281 277 257 235 274 249 252 254 247 163 142 235 96 72 63 64 50 30 5 326 308 285 273 304 307 4 52 68 93 110 106 140 153 160 167 186 200 212 227 207 195 196 199 202 204 201 197 194 191 185 182 183 180 177 169 165 170 173 177 171 163 157 157 161 164 164 163 167 168 169 171 171 175 173 154 131 127 136 151 151 139 141 144 147 157 164 169 178 202 214 199 190
322 357 14 23 318 253 252 262 225 256 257 259 267 301 50 301 285 88 84 79 67 49 27 353 321 328 308 278 333 329 42 64 68 81 106 118 161 173 164 174 177 190 207 223 214 200 200 204 202 203 207 201 197 196 189 188 189 187 184 174 167 167 173 178 178 173 168 167 170 172 170 173 177 176 177 178 178 179 179 170 151 145 149 160 163 150 154 153 155 170 176 179 190 218 236 242 239
313 1 10 29 278 279 276 250 234 234 241 256 267 327 101 271 275 93 91 94 71 52 32 345 332 323 323 283 311 327 58 76 75 68 105 129 182 202 174 177 173 183 201 220 219 208 204 206 202 202 208 202 200 200 194 194 193 193 190 182 173 169 172 177 185 183 179 175 175 179 178 182 186 185 183 182 183 182 186 188 178 170 164 163 166 161 161 165 171 181 186 194 210 238 248 250 250
311 308 308 272 253 293 313 250 247 239 239 251 267 270 182 248 357 69 81 97 84 89 82 359 10 320 304 259 233 348 343 66 96 86 82 69 6 180 173 175 174 180 192 212 221 223 209 202 202 202 207 202 201 203 197 198 198 196 194 190 182 176 177 182 192 193 188 180 179 185 185 188 192 192 190 189 187 188 198 203 199 185 176 174 169 162 169 188 200 204 204 212 222 242 256 251 239
337 309 227 246 255 242 258 247 254 255 249 249 260 277 284 317 58 63 58 99 113 147 138 87 33 319 282 245 183 128 292 354 110 268 329 352 40 127 162 170 179 180 181 202 220 230 210 194 202 201 205 203 203 205 200 200 199 196 195 194 189 185 188 196 202 200 192 184 185 191 191 192 196 197 194 194 193 196 204 207 207 195 184 184 178 175 188 202 213 224 226 229 233 244 257 255 240
349 298 243 246 250 205 228 240 248 254 263 267 263 269 271 303 69 58 275 91 138 180 171 138 83 311 299 335 111 166 215 60 36 330 325 330 80 134 160 171 186 181 173 194 216 230 219 190 202 200 203 206 207 204 198 201 196 191 193 195 194 197 205 213 211 202 194 189 191 196 197 196 199 203 199 199 199 201 204 206 208 204 200 196 197 205 213 216 217 228 237 240 243 248 253 252 245
308 268 266 270 248 239 239 237 247 246 253 266 272 275 270 270 107 218 240 267 280 285 201 129 97 340 329 337 80 115 98 59 22 350 342 1 117 148 164 173 191 181 170 191 215 230 225 203 203 201 203 207 211 206 198 201 194 189 192 195 197 206 222 225 210 200 199 193 193 199 202 201 202 207 208 205 199 201 206 209 213 212 213 209 211 221 225 231 229 232 241 243 243 245 248 247 243
280 231 246 274 233 248 242 243 249 247 252 254 263 271 273 272 233 225 195 275 272 304 341 109 142 262 293 308 96 77 52 57 14 358 357 92 150 158 163 172 189 183 175 193 211 225 225 218 220 207 207 208 212 211 206 201 196 195 195 199 202 211 232 231 204 199 206 199 196 200 202 205 205 209 212 208 202 207 214 215 224 224 223 229 230 234 239 245 242 234 239 245 243 242 246 245 242
272 214 223 266 235 240 239 243 242 248 254 251 257 257 267 271 261 293 305 282 286 284 279 138 251 271 263 284 89 68 66 76 23 22 2 127 160 162 159 171 183 180 184 201 206 218 224 222 228 222 214 209 211 214 212 203 198 200 201 205 207 217 236 240 214 205 210 205 203 203 203 208 209 213 214 213 212 215 221 223 232 236 241 246 242 240 245 249 245 236 237 245 246 244 246 246 244
265 222 208 230 231 242 250 251 252 254 256 255 263 255 258 257 235 186 246 264 273 256 250 195 195 39 296 20 91 98 98 120 49 34 358 165 174 165 157 170 177 177 190 209 207 214 221 222 227 229 222 211 211 214 213 202 199 204 206 209 210 222 237 245 233 219 216 208 207 209 208 211 211 215 217 218 219 220 226 230 238 243 248 251 248 251 254 249 239 233 236 243 246 248 248 246 242
242 278 227 231 231 240 250 256 265 264 271 264 272 282 276 265 211 274 264 264 260 258 333 28 102 68 313 89 105 107 92 88 357 40 175 183 188 166 159 171 174 177 190 209 215 215 219 225 225 228 222 212 211 212 211 201 200 208 213 216 213 224 238 246 242 233 230 214 208 212 214 215 213 216 220 222 223 225 229 233 240 245 248 254 260 265 266 264 245 229 233 241 246 247 248 245 236
235 273 264 264 254 247 250 253 259 256 270 262 302 334 1 20 31 321 306 290 271 19 12 21 52 49 328 100 98 60 52 36 13 10 240 206 194 170 171 173 168 183 194 206 222 223 223 227 227 227 219 211 210 210 214 207 202 208 217 221 217 224 235 246 247 239 237 228 217 215 218 220 219 219 222 225 227 229 233 237 241 247 252 258 264 267 270 271 253 224 227 238 245 247 245 241 232
254 285 293 273 276 269 260 259 264 263 267 276 355 356 4 46 4 296 328 322 357 32 350 353 35 348 353 46 87 64 48 25 20 13 337 255 206 187 188 173 168 192 202 201 219 228 230 230 227 224 213 210 210 212 220 217 211 209 217 222 220 227 233 241 248 246 240 235 230 222 221 224 225 226 226 227 229 232 236 240 244 248 252 257 260 263 266 262 243 226 227 235 242 242 235 230 227
255 289 306 246 263 259 259 268 269 266 293 5 16 1 348 48 25 353 4 353 336 348 335 353 17 347 24 63 100 64 12 2 5 6 359 322 249 213 205 177 174 199 206 197 209 223 235 235 226 217 208 209 210 215 223 226 223 220 222 224 222 226 234 240 245 250 245 235 233 230 228 228 229 230 230 230 232 236 239 242 245 248 251 254 255 257 258 246 231 232 232 232 239 238 231 228 228
226 251 262 251 253 245 273 289 293 291 352 8 10 8 2 10 20 19 360 337 317 317 327 344 354 0 39 71 63 357 359 5 7 6 9 350 295 253 222 188 184 202 204 196 202 216 231 230 223 215 206 206 209 215 222 227 228 229 232 233 232 230 233 239 243 247 247 237 231 233 235 234 233 234 234 234 235 237 239 242 245 247 249 251 253 250 249 239 226 230 234 232 240 244 241 241 237
208 210 214 235 241 257 355 33 12 351 4 1 357 6 5 3 15 13 345 332 325 291 274 293 339 64 59 42 21 4 5 10 14 12 9 2 321 281 253 209 200 207 210 204 201 213 224 220 218 218 210 208 211 215 221 225 227 228 232 238 243 242 239 240 243 245 244 240 231 230 235 237 238 237 237 238 239 242 242 244 246 249 249 249 252 248 246 238 224 225 234 235 240 245 246 249 248
216 228 223 226 258 11 36 35 22 14 358 350 354 355 353 15 14 359 349 347 342 320 327 359 25 60 47 35 24 13 11 358 2 8 2 358 343 295 277 253 225 219 225 221 208 211 217 214 214 218 217 215 216 218 219 224 228 229 229 235 241 245 246 244 244 245 243 241 235 230 231 235 236 236 237 239 243 247 247 246 248 252 252 251 254 253 248 237 225 221 229 233 236 241 242 245 248
230 237 228 206 26 25 42 26 11 11 351 349 357 342 342 11 6 351 355 342 329 338 29 11 7 21 16 19 15 7 7 348 349 355 352 346 336 302 275 278 265 241 241 241 226 216 214 213 212 216 220 221 221 221 220 221 227 231 233 235 236 240 245 246 245 245 243 241 241 237 232 232 234 235 236 239 247 251 249 246 247 249 248 249 252 253 249 237 227 221 221 226 231 236 237 240 245
291 266 243 28 40 4 35 21 1 359 346 345 348 337 348 3 356 346 352 346 315 338 15 3 345 349 348 347 347 347 350 342 341 342 345 342 322 304 277 276 282 267 254 254 248 234 222 216 212 213 220 223 223 225 225 224 227 231 234 237 237 240 244 245 244 245 244 242 245 244 237 231 230 234 233 231 237 244 247 248 248 248 244 243 245 246 246 240 231 225 221 222 227 233 238 242 242
324 325 282 318 41 355 2 10 358 353 340 337 341 342 347 345 345 345 341 333 309 324 344 344 333 333 335 334 332 335 342 339 334 328 330 331 318 306 292 279 275 269 258 259 263 253 235 225 217 214 218 224 225 227 228 227 229 232 232 236 240 244 244 242 240 242 242 240 244 244 239 234 227 227 224 221 228 237 246 250 250 249 243 239 240 240 241 241 236 231 229 228 230 235 243 247 234
315 311 292 319 33 5 343 355 354 351 338 329 329 327 331 332 337 341 332 319 317 318 323 331 334 336 339 342 342 347 349 348 347 340 332 326 318 307 297 288 273 267 263 263 270 264 250 237 225 218 216 222 225 227 230 230 232 235 236 237 242 247 245 241 241 242 239 235 240 240 233 235 230 223 217 219 232 239 244 251 249 245 245 242 239 237 235 236 234 231 232 233 235 236 242 244 226
304 303 326 344 13 2 342 345 341 341 329 318 318 316 322 328 329 333 327 315 311 311 316 330 340 341 344 345 346 349 351 357 359 356 350 340 331 316 302 294 279 268 268 270 273 269 259 246 230 224 218 219 226 226 227 230 233 236 237 239 241 243 240 238 243 246 244 234 233 237 230 229 229 226 218 214 229 239 242 249 248 245 250 249 240 237 234 229 226 228 232 234 233 233 234 233 228
9 342 342 343 348 344 337 333 325 327 318 310 313 309 312 312 312 314 305 304 310 316 323 336 342 343 345 342 344 352 356 357 356 357 353 345 341 332 319 307 290 269 268 274 277 270 261 253 238 229 222 217 225 230 228 228 232 235 235 236 238 238 234 231 238 243 243 231 227 235 234 229 227 226 223 215 221 235 240 243 243 242 246 250 245 240 239 232 225 226 231 234 233 232 231 229 231
20 348 337 335 329 325 323 316 308 311 304 302 304 302 309 307 314 302 284 314 340 347 350 346 352 354 356 358 0 3 3 1 0 0 357 350 345 338 330 321 308 284 268 270 275 272 264 259 249 238 229 221 223 228 230 227 228 233 232 231 234 235 231 226 230 236 236 229 226 233 235 233 230 226 225 224 223 229 235 236 234 234 237 241 239 235 237 238 233 226 224 228 231 232 230 228 231
349 331 325 319 304 301 294 286 303 314 314 340 335 324 316 301 307 268 270 17 15 347 344 347 1 5 4 8 8 7 6 8 8 6 6 6 1 351 341 334 328 314 293 278 272 274 272 265 256 246 236 228 224 224 230 228 225 230 232 229 229 231 230 225 224 227 232 232 229 232 234 234 235 230 223 225 228 227 229 230 229 230 232 234 233 229 229 231 232 227 222 224 226 228 229 228 230
318 310 311 302 284 282 272 269 346 348 9 19 350 316 293 271 260 245 286 20 20 1 350 350 10 13 6 8 11 12 8 9 14 15 14 14 12 4 353 344 338 332 321 305 286 275 274 272 262 250 240 232 227 224 229 232 228 228 231 231 229 228 230 230 226 222 227 232 231 233 235 235 236 233 225 222 226 229 229 229 229 230 233 233 233 231 227 226 228 228 227 227 227 227 231 234 235
286 284 289 293 279 301 359 37 16 351 20 11 341 300 273 242 124 63 49 31 26 22 14 5 8 10 7 9 11 13 18 23 24 18 12 8 5 1 353 347 339 336 337 319 303 285 272 274 271 255 245 239 233 227 227 233 234 230 228 231 230 225 227 232 233 226 222 226 229 232 234 236 236 234 229 224 224 230 233 232 231 231 232 232 232 232 230 228 229 231 231 231 231 230 234 239 241
286 290 236 296 288 73 51 48 15 353 24 4 340 308 323 116 86 66 53 30 26 22 12 6 2 5 2 359 12 25 33 33 27 18 12 6 359 358 355 346 333 325 329 322 310 298 279 275 278 267 253 246 239 231 228 232 236 233 229 230 232 227 224 228 234 233 226 224 225 229 232 234 237 236 233 226 222 226 232 234 235 234 233 233 233 233 232 231 231 232 234 235 236 235 236 240 243
336 335 54 351 2 58 46 66 37 8 14 357 339 290 28 95 78 56 49 26 16 6 359 1 352 350 352 8 35 38 34 30 27 21 16 13 8 9 6 352 341 329 322 327 326 313 293 279 279 278 269 259 249 237 231 232 236 237 234 231 231 230 226 227 232 235 233 228 224 226 231 234 236 237 236 230 223 222 228 233 235 236 236 235 234 234 234 234 234 234 236 238 240 241 242 243 246
9 357 26 8 2 17 10 66 60 29 2 355 345 296 323 53 27 19 26 14 3 357 353 352 352 7 24 37 42 35 29 28 27 23 18 18 16 15 12 5 1 358 348 332 324 315 302 293 285 282 279 273 271 256 239 233 234 239 240 235 232 230 228 228 231 234 236 234 228 225 228 233 236 237 238 235 228 225 227 230 233 234 236 236 236 235 235 236 237 238 240 242 244 246 248 248 250
19 11 13 7 352 355 355 23 42 31 7 353 347 320 311 321 352 0 5 359 349 342 347 6 27 37 41 41 39 33 29 26 23 20 19 18 19 18 15 15 15 10 2 339 321 315 298 297 292 288 283 276 278 280 260 241 237 239 242 243 241 236 232 230 230 231 234 236 236 232 229 232 236 238 240 240 236 232 229 229 230 231 232 235 237 236 237 239 241 241 242 244 246 247 250 252 252
16 12 359 12 354 348 3 355 14 21 6 344 335 308 306 323 347 351 348 344 341 349 17 39 46 43 39 37 34 32 28 24 20 17 16 16 18 19 18 20 20 15 8 356 337 323 303 286 281 286 290 285 281 282 275 261 253 246 242 244 247 246 242 237 235 233 232 234 238 239 234 233 236 239 242 242 241 239 234 230 229 230 231 233 235 237 240 242 242 242 243 244 245 246 248 250 252
358 5 350 11 3 357 5 348 3 16 360 336 323 309 334 340 338 340 355 20 32 38 45 47 44 39 36 32 30 27 24 22 19 15 14 15 17 17 18 20 21 20 16 11 1 336 312 285 268 268 280 291 288 280 276 273 270 263 251 247 247 249 248 246 243 239 237 235 237 241 239 236 236 239 244 245 245 244 240 235 232 230 229 230 234 236 239 242 244 243 243 243 243 244 245 248 250
360 0 357 1 3 4 355 340 2 14 356 328 332 350 339 323 322 356 34 48 49 46 45 42 39 37 33 29 26 24 22 19 16 15 15 15 17 16 16 19 20 19 18 18 16 9 355 327 296 274 265 276 286 284 281 275 271 270 264 258 253 249 247 248 249 247 244 240 238 241 242 240 238 238 242 245 247 247 245 242 237 233 231 232 235 238 241 244 245 245 244 244 243 243 244 244 245
16 5 3 1 7 2 337 332 4 10 351 316 336 352 321 331 30 47 51 50 46 43 42 39 36 34 30 26 24 22 19 17 15 16 16 15 16 16 16 17 17 17 17 18 19 19 14 3 345 316 289 274 275 292 294 283 274 271 269 267 262 255 248 247 248 248 248 248 244 241 242 243 241 240 241 243 247 248 248 246 240 237 238 239 240 242 244 244 245 245 245 244 243 243 244 244 242
33 13 1 4 10 345 320 330 359 353 329 305 335 347 353 41 57 52 52 50 44 42 39 35 32 31 29 24 21 19 17 15 14 14 14 14 14 14 14 15 15 13 14 16 17 16 15 13 8 354 329 296 278 283 295 293 285 276 269 265 265 265 260 253 248 247 249 250 248 244 243 244 246 246 243 243 246 247 248 247 245 243 242 242 244 244 242 241 240 241 240 240 242 244 245 246 242
41 20 6 10 360 334 317 336 346 335 316 324 333 2 41 53 56 50 51 51 47 45 42 38 32 28 26 23 19 16 14 14 13 12 11 12 13 13 13 13 13 11 11 13 14 13 13 13 12 9 0 342 308 286 282 285 289 285 276 269 267 268 269 266 260 255 254 252 249 247 246 246 248 250 248 243 243 245 247 247 247 246 244 243 244 243 241 239 238 238 239 240 240 241 243 245 244
53 32 14 1 355 350 325 325 332 322 303 339 358 56 59 43 43 48 47 47 47 44 43 41 36 30 26 23 20 17 15 14 12 11 9 9 10 12 12 12 10 10 10 12 11 10 11 11 11 11 9 4 351 323 295 280 274 278 281 280 277 272 271 273 267 261 260 258 255 254 252 250 248 250 251 247 242 242 244 245 245 243 243 244 244 243 243 241 240 238 238 239 239 240 242 245 245
32 40 27 353 343 339 310 313 324 311 281 349 19 61 52 15 31 39 33 44 45 38 37 36 32 30 26 24 22 19 17 14 13 12 10 9 9 10 11 12 10 9 10 10 10 9 9 10 11 10 10 9 5 357 335 301 280 274 276 282 287 280 272 270 266 261 260 261 261 260 260 258 252 248 247 247 247 245 244 243 243 241 241 243 243 244 244 244 243 240 238 238 239 241 245 247 244
349 31 19 348 329 319 324 328 324 325 355 360 14 69 67 358 38 24 4 41 40 33 36 31 26 25 24 24 21 19 17 15 15 14 12 11 9 9 10 11 11 9 8 9 9 9 9 10 10 10 9 8 6 5 360 344 315 290 280 280 291 293 283 275 272 269 267 265 265 265 264 264 261 256 249 245 245 246 246 244 243 242 241 241 241 242 243 243 242 242 241 239 240 243 244 244 244
327 0 353 336 318 315 338 337 318 356 7 321 351 49 173 192 49 12 354 36 33 31 37 30 26 23 19 20 18 18 16 14 15 14 14 14 11 11 10 10 10 9 8 9 10 10 10 10 9 9 8 7 5 4 4 1 352 330 299 283 281 287 291 287 282 279 276 274 272 270 268 266 266 264 260 252 245 243 244 244 244 243 241 241 240 239 241 242 243 244 243 241 242 243 239 237 242
319 334 332 318 310 314 330 317 300 335 326 301 1 21 29 118 52 323 342 25 23 23 31 27 25 22 18 17 17 17 16 15 15 14 15 15 13 13 11 9 10 10 10 11 11 11 10 10 9 9 8 6 5 3 3 3 1 355 339 313 289 281 282 284 283 281 278 276 275 273 270 269 268 267 266 262 255 248 244 244 244 243 241 240 239 239 241 243 243 243 242 241 241 240 238 238 239
309 319 315 300 294 291 291 289 284 324 356 349 1 9 20 240 273 269 355 27 18 16 24 19 19 21 18 16 15 15 14 15 14 14 14 13 14 14 12 10 9 10 12 12 12 12 11 11 9 9 8 6 5 3 2 2 1 360 356 347 327 302 285 276 274 275 275 274 273 272 271 269 269 269 269 268 265 259 254 251 248 245 242 239 237 238 241 243 242 241 240 240 239 239 240 240 237
315 311 300 281 259 245 255 268 276 328 21 4 355 5 10 257 298 356 12 31 7 5 16 13 15 21 19 16 16 13 12 12 12 12 12 10 12 13 12 12 10 10 11 11 11 11 11 10 9 8 8 6 5 4 3 1 1 360 358 354 347 335 315 292 277 271 273 276 275 272 270 269 268 267 266 267 267 265 263 260 257 252 247 242 238 237 238 240 240 240 240 240 240 239 238 239 240
325 314 302 285 232 213 235 245 260 317 26 14 3 353 340 286 290 317 3 54 311 335 8 10 14 21 20 17 15 13 10 9 9 9 8 8 8 8 9 10 9 9 9 9 10 9 9 9 8 7 7 6 4 3 3 3 1 0 358 355 351 347 339 325 305 286 277 278 280 278 274 271 269 266 265 265 265 266 264 263 262 259 255 249 244 239 236 236 238 239 238 238 239 239 239 239 241
341 327 336 352 313 272 292 300 347 12 279 1 2 345 327 266 265 242 186 231 270 341 18 6 9 17 17 15 13 12 10 8 7 6 6 6 5 4 6 6 5 5 6 7 7 6 7 6 5 5 5 5 3 2 2 2 2 1 359 356 353 349 345 340 330 313 296 284 279 280 279 275 272 270 268 266 264 263 262 261 261 261 260 256 252 247 240 235 235 237 237 235 236 238 239 239 240
354 345 360 16 8 8 356 339 4 324 283 341 351 352 334 259 277 153 172 232 260 32 37 16 14 18 14 12 10 8 8 7 5 4 4 5 3 3 3 2 2 1 1 2 2 3 3 3 2 2 2 2 2 1 1 0 1 1 360 358 354 350 346 342 337 329 318 300 284 278 279 279 277 273 269 268 266 263 261 261 261 261 260 259 257 254 247 239 234 234 236 235 234 235 237 238 239
345 352 13 27 27 18 348 331 340 288 300 322 328 348 340 273 274 159 172 207 223 47 45 28 21 21 13 8 7 6 6 4 1 360 1 1 360 360 359 359 359 357 357 358 359 359 359 359 359 358 358 359 359 359 359 358 359 359 359 358 356 352 346 342 339 336 331 318 301 285 276 274 276 275 272 269 268 266 264 263 262 260 260 261 261 258 255 248 240 235 235 235 234 236 237 237 239
310 334 28 41 52 44 320 325 328 290 302 310 310 322 294 298 237 171 170 187 185 52 43 29 21 20 14 7 5 6 3 1 359 356 357 357 356 355 354 355 356 355 355 356 356 356 355 355 355 355 354 355 355 356 356 356 356 356 357 356 356 354 349 344 340 339 336 328 318 302 285 274 271 270 270 270 268 266 266 265 262 258 257 259 260 259 258 255 248 241 238 237 236 236 236 236 237
288 351 41 46 72 94 263 268 255 266 303 300 284 285 351 345 172 161 166 185 177 55 34 25 14 6 11 10 5 4 1 358 357 354 353 353 352 352 352 352 353 353 353 353 353 352 352 352 351 351 351 351 352 352 352 352 352 352 354 354 355 354 352 347 341 339 337 333 326 317 303 288 277 270 267 268 267 264 264 264 263 259 256 256 256 257 257 256 251 247 244 241 240 238 236 235 235
284 2 7 261 151 134 248 281 266 272 295 283 284 329 345 28 179 174 176 188 159 55 26 24 9 355 1 6 3 2 358 354 354 352 349 347 347 349 349 349 350 349 349 350 350 349 349 349 348 348 349 348 348 348 348 349 348 348 350 351 353 353 353 351 346 341 337 334 331 325 314 302 291 280 272 268 267 264 262 262 264 262 258 255 253 253 255 255 251 249 248 244 242 241 238 236 235
314 32 333 312 87 102 126 278 307 319 289 281 311 330 321 317 306 183 189 202 81 38 17 18 2 351 357 358 359 0 354 351 349 348 347 343 342 343 343 344 346 346 347 347 347 347 347 347 346 346 346 346 345 345 345 345 345 345 346 347 349 350 351 351 350 346 341 336 333 329 323 312 302 292 280 270 267 265 264 262 263 262 258 254 251 249 252 253 250 249 249 245 242 241 240 240 238
288 52 23 17 72 22 320 276 301 301 284 285 307 341 318 283 304 87 283 339 25 12 8 4 350 353 360 355 352 351 348 346 344 344 343 341 339 338 338 340 342 344 345 346 346 345 345 345 345 344 344 344 343 343 343 342 342 343 343 343 344 346 348 349 349 348 344 339 335 330 327 320 311 301 289 277 268 264 263 262 262 262 261 259 254 250 250 251 250 249 247 246 245 241 239 240 240
319 7 35 30 168 232 283 305 200 233 281 293 305 336 296 230 40 356 330 360 20 3 359 349 341 351 357 351 345 344 342 340 338 338 339 338 335 334 335 336 339 341 343 345 345 344 344 344 343 343 343 342 342 342 343 341 340 340 340 340 341 341 343 344 346 346 345 343 339 334 328 322 317 309 300 289 275 264 259 259 260 261 262 262 258 254 251 250 250 248 244 245 246 242 239 240 240
337 2 38 6 332 251 247 259 180 192 277 285 297 296 249 213 13 332 325 15 18 355 346 338 341 346 346 343 337 336 335 332 333 334 334 335 333 331 330 329 330 333 335 340 342 341 342 341 341 341 341 341 340 341 342 342 340 339 338 338 338 339 339 340 341 342 344 345 343 338 332 324 318 314 309 300 288 274 262 256 256 258 259 258 258 257 254 251 249 244 240 243 245 243 240 238 237
349 345 42 36 349 17 356 298 290 70 304 255 284 284 264 268 325 307 340 28 1 347 343 338 341 340 335 332 331 332 333 329 328 330 331 331 330 329 327 323 322 323 326 332 336 338 339 338 338 338 338 338 337 338 339 339 339 339 338 336 336 337 337 337 338 338 340 343 343 341 338 331 322 318 314 307 298 287 272 260 256 258 258 257 257 257 254 253 251 242 236 241 245 243 239 235 235